Time,TemperatureF,DewpointF,PressureIn,WindDirection,WindDirectionDegrees,WindSpeedMPH,WindSpeedGustMPH,Humidity,HourlyPrecipIn,Conditions,Clouds,dailyrainin,SoftwareType,DateUTC
2013-03-07 00:03:00,36.6,27.0,30.03,East,79,1.0,7.0,68,0.00,,,0.00,weatherlink.com 1.10,2013-03-07 05:03:00,
2013-03-07 00:18:00,36.4,27.0,30.03,East,97,0.0,5.0,69,0.00,,,0.00,weatherlink.com 1.10,2013-03-07 05:18:00,
2013-03-07 00:33:00,36.2,27.0,30.04,WNW,283,2.0,3.0,70,0.00,,,0.00,weatherlink.com 1.10,2013-03-07 05:33:00,
2013-03-07 00:48:00,36.1,28.0,30.04,West,261,0.0,2.0,71,0.00,,,0.00,weatherlink.com 1.10,2013-03-07 05:48:00,
2013-03-07 01:03:00,35.7,27.0,30.04,SW,236,0.0,3.0,72,0.00,,,0.00,weatherlink.com 1.10,2013-03-07 06:03:00,
2013-03-07 01:18:00,35.9,27.0,30.04,North,349,0.0,4.0,71,0.00,,,0.00,weatherlink.com 1.10,2013-03-07 06:18:00,
2013-03-07 01:33:00,35.7,27.0,30.04,WSW,238,0.0,4.0,71,0.00,,,0.00,weatherlink.com 1.10,2013-03-07 06:33:00,
2013-03-07 01:48:00,35.5,27.0,30.04,SSW,199,0.0,2.0,72,0.00,,,0.00,weatherlink.com 1.10,2013-03-07 06:48:00,
2013-03-07 02:03:00,34.8,28.0,30.03,South,188,1.0,3.0,75,0.00,,,0.00,weatherlink.com 1.10,2013-03-07 07:03:00,
2013-03-07 02:18:00,34.6,27.0,30.04,SSW,202,0.0,4.0,75,0.00,,,0.00,weatherlink.com 1.10,2013-03-07 07:18:00,
2013-03-07 02:33:00,34.4,27.0,30.04,SW,236,0.0,3.0,75,0.00,,,0.00,weatherlink.com 1.10,2013-03-07 07:33:00,
2013-03-07 02:48:00,34.8,28.0,30.04,WSW,249,1.0,4.0,75,0.00,,,0.00,weatherlink.com 1.10,2013-03-07 07:48:00,
2013-03-07 03:03:00,34.9,27.0,30.04,WSW,240,2.0,3.0,74,0.00,,,0.00,weatherlink.com 1.10,2013-03-07 08:03:00,
2013-03-07 03:18:00,34.6,27.0,30.04,SSW,194,0.0,3.0,74,0.00,,,0.00,weatherlink.com 1.10,2013-03-07 08:18:00,
2013-03-07 03:33:00,34.6,27.0,30.04,WSW,247,3.0,4.0,74,0.00,,,0.00,weatherlink.com 1.10,2013-03-07 08:33:00,
2013-03-07 03:48:00,34.2,27.0,30.04,SSW,207,0.0,6.0,74,0.00,,,0.00,weatherlink.com 1.10,2013-03-07 08:48:00,
2013-03-07 04:03:00,34.4,27.0,30.05,SSW,213,0.0,3.0,73,0.00,,,0.00,weatherlink.com 1.10,2013-03-07 09:03:00,
2013-03-07 04:18:00,34.2,26.0,30.05,SW,218,1.0,4.0,73,0.00,,,0.00,weatherlink.com 1.10,2013-03-07 09:18:00,
2013-03-07 04:33:00,34.4,26.0,30.05,SSW,204,3.0,4.0,72,0.00,,,0.00,weatherlink.com 1.10,2013-03-07 09:33:00,
2013-03-07 04:48:00,34.0,26.0,30.06,SW,221,1.0,4.0,73,0.00,,,0.00,weatherlink.com 1.10,2013-03-07 09:48:00,
2013-03-07 05:03:00,33.7,26.0,30.05,SSW,203,0.0,2.0,74,0.00,,,0.00,weatherlink.com 1.10,2013-03-07 10:03:00,
2013-03-07 05:18:00,34.0,26.0,30.05,SW,232,1.0,4.0,73,0.00,,,0.00,weatherlink.com 1.10,2013-03-07 10:18:00,
2013-03-07 05:33:00,34.3,26.0,30.06,SSW,193,1.0,3.0,72,0.00,,,0.00,weatherlink.com 1.10,2013-03-07 10:33:00,
2013-03-07 05:48:00,34.9,26.0,30.06,ESE,123,0.0,6.0,71,0.00,,,0.00,weatherlink.com 1.10,2013-03-07 10:48:00,
2013-03-07 06:03:00,35.0,26.0,30.06,NE,41,0.0,3.0,71,0.00,,,0.00,weatherlink.com 1.10,2013-03-07 11:03:00,
2013-03-07 06:18:00,34.9,26.0,30.06,ENE,58,0.0,6.0,71,0.00,,,0.00,weatherlink.com 1.10,2013-03-07 11:18:00,
2013-03-07 06:33:00,35.0,26.0,30.06,NE,37,0.0,3.0,70,0.00,,,0.00,weatherlink.com 1.10,2013-03-07 11:33:00,
2013-03-07 06:48:00,35.0,26.0,30.07,ENE,66,1.0,4.0,69,0.00,,,0.00,weatherlink.com 1.10,2013-03-07 11:48:00,
2013-03-07 07:03:00,35.2,26.0,30.07,East,79,2.0,3.0,69,0.00,,,0.00,weatherlink.com 1.10,2013-03-07 12:03:00,
2013-03-07 07:18:00,35.3,26.0,30.08,NNW,333,2.0,4.0,69,0.00,,,0.00,weatherlink.com 1.10,2013-03-07 12:18:00,
2013-03-07 07:33:00,35.5,25.0,30.09,ENE,57,2.0,6.0,67,0.00,,,0.00,weatherlink.com 1.10,2013-03-07 12:33:00,
2013-03-07 07:48:00,35.7,26.0,30.09,East,81,3.0,6.0,67,0.00,,,0.00,weatherlink.com 1.10,2013-03-07 12:48:00,
2013-03-07 08:03:00,35.8,25.0,30.10,NNE,17,4.0,11.0,66,0.00,,,0.00,weatherlink.com 1.10,2013-03-07 13:03:00,
2013-03-07 08:18:00,36.0,25.0,30.10,East,82,7.0,11.0,65,0.00,,,0.00,weatherlink.com 1.10,2013-03-07 13:18:00,
2013-03-07 08:34:00,36.3,25.0,30.11,NE,42,3.0,8.0,64,0.00,,,0.00,weatherlink.com 1.10,2013-03-07 13:34:00,
2013-03-07 08:49:00,36.5,25.0,30.11,NE,40,5.0,10.0,63,0.00,,,0.00,weatherlink.com 1.10,2013-03-07 13:49:00,
2013-03-07 09:04:00,36.5,25.0,30.12,NW,320,0.0,9.0,64,0.00,,,0.00,weatherlink.com 1.10,2013-03-07 14:04:00,
2013-03-07 09:19:00,36.9,26.0,30.12,WSW,257,5.0,8.0,64,0.00,,,0.00,weatherlink.com 1.10,2013-03-07 14:19:00,
2013-03-07 09:34:00,37.0,25.0,30.12,ENE,57,9.0,10.0,63,0.00,,,0.00,weatherlink.com 1.10,2013-03-07 14:34:00,
2013-03-07 09:49:00,37.1,25.0,30.13,West,266,4.0,9.0,63,0.00,,,0.00,weatherlink.com 1.10,2013-03-07 14:49:00,
2013-03-07 10:04:00,37.5,25.0,30.13,NW,318,4.0,12.0,62,0.00,,,0.00,weatherlink.com 1.10,2013-03-07 15:04:00,
2013-03-07 10:19:00,37.9,25.0,30.14,North,11,4.0,11.0,61,0.00,,,0.00,weatherlink.com 1.10,2013-03-07 15:19:00,
2013-03-07 10:34:00,38.0,25.0,30.14,WNW,288,7.0,13.0,61,0.00,,,0.00,weatherlink.com 1.10,2013-03-07 15:34:00,
2013-03-07 10:49:00,38.1,26.0,30.13,ENE,60,5.0,13.0,61,0.00,,,0.00,weatherlink.com 1.10,2013-03-07 15:49:00,
2013-03-07 11:05:00,38.8,26.0,30.13,NNW,336,4.0,12.0,61,0.00,,,0.00,weatherlink.com 1.10,2013-03-07 16:05:00,
2013-03-07 11:19:00,38.8,26.0,30.13,WNW,289,6.0,11.0,60,0.00,,,0.00,weatherlink.com 1.10,2013-03-07 16:19:00,
2013-03-07 11:34:00,38.6,25.0,30.13,NE,38,5.0,19.0,58,0.00,,,0.00,weatherlink.com 1.10,2013-03-07 16:34:00,
2013-03-07 11:49:00,39.6,26.0,30.13,NW,309,2.0,14.0,58,0.00,,,0.00,weatherlink.com 1.10,2013-03-07 16:49:00,
2013-03-07 12:04:00,40.1,25.0,30.13,North,360,2.0,13.0,56,0.00,,,0.00,weatherlink.com 1.10,2013-03-07 17:04:00,
2013-03-07 12:19:00,40.7,26.0,30.13,NW,321,5.0,14.0,56,0.00,,,0.00,weatherlink.com 1.10,2013-03-07 17:19:00,
2013-03-07 12:34:00,40.9,26.0,30.12,ENE,63,2.0,12.0,55,0.00,,,0.00,weatherlink.com 1.10,2013-03-07 17:34:00,
2013-03-07 12:49:00,41.3,26.0,30.12,NNW,348,4.0,14.0,54,0.00,,,0.00,weatherlink.com 1.10,2013-03-07 17:49:00,
2013-03-07 13:04:00,42.3,27.0,30.11,West,273,9.0,12.0,54,0.00,,,0.00,weatherlink.com 1.10,2013-03-07 18:04:00,
2013-03-07 13:34:00,42.2,26.0,30.10,WSW,247,11.0,16.0,53,0.00,,,0.00,weatherlink.com 1.10,2013-03-07 18:34:00,
2013-03-07 13:49:00,43.2,26.0,30.09,NW,317,4.0,16.0,51,0.00,,,0.00,weatherlink.com 1.10,2013-03-07 18:49:00,
2013-03-07 14:04:00,43.5,27.0,30.10,WNW,294,6.0,16.0,52,0.00,,,0.00,weatherlink.com 1.10,2013-03-07 19:04:00,
2013-03-07 14:19:00,44.5,26.0,30.10,West,270,2.0,13.0,48,0.00,,,0.00,weatherlink.com 1.10,2013-03-07 19:19:00,
2013-03-07 14:34:00,45.3,26.0,30.10,NE,53,11.0,12.0,48,0.00,,,0.00,weatherlink.com 1.10,2013-03-07 19:34:00,
2013-03-07 14:49:00,43.9,25.0,30.10,WNW,297,3.0,19.0,47,0.00,,,0.00,weatherlink.com 1.10,2013-03-07 19:49:00,
2013-03-07 15:04:00,44.6,25.0,30.10,North,11,5.0,11.0,47,0.00,,,0.00,weatherlink.com 1.10,2013-03-07 20:04:00,
2013-03-07 15:19:00,44.6,25.0,30.10,West,273,5.0,11.0,47,0.00,,,0.00,weatherlink.com 1.10,2013-03-07 20:19:00,
2013-03-07 15:34:00,44.8,25.0,30.10,SW,236,7.0,12.0,46,0.00,,,0.00,weatherlink.com 1.10,2013-03-07 20:34:00,
2013-03-07 15:49:00,44.8,25.0,30.11,NW,311,7.0,13.0,46,0.00,,,0.00,weatherlink.com 1.10,2013-03-07 20:49:00,
2013-03-07 16:19:00,44.3,25.0,30.11,NW,305,5.0,15.0,46,0.00,,,0.00,weatherlink.com 1.10,2013-03-07 21:19:00,
2013-03-07 16:34:00,43.5,24.0,30.11,NE,46,2.0,14.0,47,0.00,,,0.00,weatherlink.com 1.10,2013-03-07 21:34:00,
2013-03-07 16:49:00,43.3,24.0,30.11,NNE,32,4.0,16.0,47,0.00,,,0.00,weatherlink.com 1.10,2013-03-07 21:49:00,
2013-03-07 17:04:00,42.8,24.0,30.12,North,360,2.0,9.0,48,0.00,,,0.00,weatherlink.com 1.10,2013-03-07 22:04:00,
2013-03-07 17:19:00,42.8,24.0,30.12,North,360,1.0,7.0,48,0.00,,,0.00,weatherlink.com 1.10,2013-03-07 22:19:00,
2013-03-07 17:49:00,40.7,24.0,30.13,SE,128,3.0,9.0,51,0.00,,,0.00,weatherlink.com 1.10,2013-03-07 22:49:00,
2013-03-07 18:04:00,40.3,23.0,30.14,WNW,290,4.0,10.0,51,0.00,,,0.00,weatherlink.com 1.10,2013-03-07 23:04:00,
2013-03-07 18:19:00,40.0,23.0,30.15,NE,42,3.0,10.0,52,0.00,,,0.00,weatherlink.com 1.10,2013-03-07 23:19:00,
2013-03-07 18:34:00,39.3,23.0,30.15,ESE,103,0.0,8.0,53,0.00,,,0.00,weatherlink.com 1.10,2013-03-07 23:34:00,
2013-03-07 18:49:00,39.1,23.0,30.15,ENE,74,8.0,9.0,52,0.00,,,0.00,weatherlink.com 1.10,2013-03-07 23:49:00,
2013-03-07 19:04:00,38.9,22.0,30.16,ESE,103,0.0,8.0,52,0.00,,,0.00,weatherlink.com 1.10,2013-03-08 00:04:00,
2013-03-07 19:20:00,38.5,23.0,30.16,ENE,57,2.0,8.0,53,0.00,,,0.00,weatherlink.com 1.10,2013-03-08 00:20:00,
2013-03-07 19:35:00,38.1,23.0,30.16,ESE,108,1.0,5.0,54,0.00,,,0.00,weatherlink.com 1.10,2013-03-08 00:35:00,
2013-03-07 19:50:00,38.1,23.0,30.16,NE,39,0.0,7.0,54,0.00,,,0.00,weatherlink.com 1.10,2013-03-08 00:50:00,
2013-03-07 20:05:00,38.1,23.0,30.16,WNW,283,3.0,8.0,54,0.00,,,0.00,weatherlink.com 1.10,2013-03-08 01:05:00,
2013-03-07 20:20:00,37.6,23.0,30.16,ENE,65,5.0,5.0,55,0.00,,,0.00,weatherlink.com 1.10,2013-03-08 01:20:00,
2013-03-07 20:35:00,37.2,23.0,30.16,South,189,2.0,3.0,56,0.00,,,0.00,weatherlink.com 1.10,2013-03-08 01:35:00,
2013-03-07 20:50:00,36.9,23.0,30.16,South,189,3.0,3.0,57,0.00,,,0.00,weatherlink.com 1.10,2013-03-08 01:50:00,
2013-03-07 21:05:00,36.5,23.0,30.16,NE,40,3.0,7.0,58,0.00,,,0.00,weatherlink.com 1.10,2013-03-08 02:05:00,
2013-03-07 21:20:00,36.8,24.0,30.16,ENE,71,4.0,10.0,59,0.00,,,0.00,weatherlink.com 1.10,2013-03-08 02:20:00,
2013-03-07 21:35:00,36.5,24.0,30.16,SSE,148,2.0,4.0,60,0.00,,,0.00,weatherlink.com 1.10,2013-03-08 02:35:00,
2013-03-07 21:50:00,36.2,24.0,30.16,ESE,106,0.0,6.0,61,0.00,,,0.00,weatherlink.com 1.10,2013-03-08 02:50:00,
2013-03-07 22:05:00,35.3,24.0,30.16,SW,218,2.0,2.0,63,0.00,,,0.00,weatherlink.com 1.10,2013-03-08 03:05:00,
2013-03-07 22:20:00,36.7,25.0,30.15,WNW,291,0.0,8.0,62,0.00,,,0.00,weatherlink.com 1.10,2013-03-08 03:20:00,
2013-03-07 22:35:00,37.6,25.0,30.16,NNE,27,1.0,7.0,60,0.00,,,0.00,weatherlink.com 1.10,2013-03-08 03:35:00,
2013-03-07 22:50:00,37.4,25.0,30.15,ENE,74,1.0,7.0,61,0.00,,,0.00,weatherlink.com 1.10,2013-03-08 03:50:00,
2013-03-07 23:05:00,36.5,25.0,30.15,East,100,0.0,3.0,63,0.00,,,0.00,weatherlink.com 1.10,2013-03-08 04:05:00,
2013-03-07 23:20:00,35.9,25.0,30.16,South,176,2.0,6.0,64,0.00,,,0.00,weatherlink.com 1.10,2013-03-08 04:20:00,
2013-03-07 23:35:00,35.5,24.0,30.16,SSW,197,1.0,6.0,64,0.00,,,0.00,weatherlink.com 1.10,2013-03-08 04:35:00,
2013-03-07 23:50:00,35.2,24.0,30.15,SSW,202,1.0,7.0,63,0.00,,,0.00,weatherlink.com 1.10,2013-03-08 04:50:00,